FENGYUN 1C DEB

Satellite information

Favourite Embed

Satellite Type and Status

DEBRISIN ORBIT

Key statistics

Satellite FENGYUN 1C DEB at a glance.

Uptime

9495

Days in orbit

Revolutions

≈ 14.4

Per day

Orbit

SSO

Sun Synchronous Orbit

Inclination

98.9

Latest

Satellite identification and parameters

Extended collection of information and parameters for FENGYUN 1C DEB.

Object identification

Identified? True

Debris? True

Object name: FENGYUN 1C DEB

International designator: 1999-025BQW

Object number (NORAD): 31342

Object ID (CCSDS): 31342

Country: PEOPLES REPUBLIC OF CHINA (PRC)

Current information (Y/N): Y

RCS size: SMALL

Orbital parameters

Period: 100.243 minutes

Inclination: 98.9078 deg

SMA: 7148.207 km

Apoapsis: 850.974 km

Periapsis: 689.17 km

RAAN: 75.507 deg

Eccentricy: 0.0113178

Argument of periapsis: 145.4328 deg

Mean anomaly: 215.4282 deg

Mean motion: 14.36504765 rev/day

Mean motion (dot): 0.00000476 rev/day2

B* drag term: 0.00016624 1/REarth

Two-line elements (TLE)

Creation date: May 8, 2025, 3:01 a.m.

Reference frame: TEME

Reference center: EARTH

Epoch: May 7, 2025, 1:51 a.m. UTC

TLE line 0: 0 FENGYUN 1C DEB

TLE line 1: 1 31342U 99025BQW 25127.07727674 .00000476 00000-0 16624-3 0 9994

TLE line 2: 2 31342 98.9078 75.5070 0113178 145.4328 215.4282 14.36504765947373

Live tracking on map

Real-time ground track for satellite FENGYUN 1C DEB.

In-orbit conjunctions

A list of the most updated potential collisions computed for object FENGYUN 1C DEB.

Target Orbit TCA Probability of collision Miss distance Type
CZ-6A DEB LEO 2025-01-24 12:54:57 0.0001659837 219.0 (m) DEBRIS
IRIDIUM 911 LEO 2025-01-05 14:32:23 0.00394561 132.0 (m) PAYLOAD

Associated space launch

Chinese polar orbiting meteorological satellite

FENGYUN 1C DEB was lifted into orbit during the mission ‘Long March 4B | Feng Yun 1C’, on board a Long March 4B space rocket.

The launch took place on May 10, 1999, 1:33 a.m. from Launch Complex 7.

For more information about the launch, click the button.

Launch to space Long March 4B | Feng Yun 1C
Long March 4B | Feng Yun 1C

Agency: N/A

Status: Launch Successful

Launch date: May 10, 1999, 1:33 a.m. UTC

Rocket: Long March 4B

Launch pad: Launch Complex 7

Location: Taiyuan Satellite Launch Center, People's Republic of China

...

Latest news about this satellite

There are no fresh news available about this satellite. Check back as we update our databases every day.


Newsletter sign-up

Weekly statistics, charts and insights to help you stay on top of the space industry.